SL-16 DEB, 24301

Orbit data source: Space-Track

SL-16 DEB, 24301 is space debris in LEO originally from a launch on Wed, 04 Sep 1996 UTC launched from the Tyuratam Missile And Space Complex (TTMTR). Debris objects in space refer to the collection of defunct objects orbiting the Earth. Examples of debris include non-operational satellites, rocket bodies, and fragments generated from explosions, collisions, or faulty payload assembly.

Loading next visibility...
Identifier
24301, 1996-051E
Orbit
LEO
Last TLE update
3 hours ago
Origin
Manufacturer
Yuzhnoe
Mission
Spacecraft
Bus & Motor
SEP MOTOR COVER, Unknown motor
Mass
~0 kg wet, ~1 kg dry
Launch date (UTC)
1996-09-04 (29 years ago)
Launch vehicle
Unknown
Launch site
Tyuratam Missile And Space Complex (TTMTR)
Object type
Payload
Rocket body
Debris
Shape & HBR
Unknown
Radar Cross Section
Small (<0.1 m²)

Expand to show TLE details & history

TLE from 3 hours ago
0 SL-16 DEB
1 24301U 96051E   25187.22171102 -.00000018  00000-0  24595-4 0  9999
2 24301  70.9933 108.1522 0208525 306.5106 205.7266 13.72514124443778
Epoch: 2025-07-06T05:19Z
TLE epoch observation values (Epoch: 2025-07-06T05:19:15.832Z)
Latitude
27.11959°
Longitude
-86.22124°
Altitude
1,132.349 km
Speed
7.22 km/s
True Right ascension
18h 32m 10s
True Declination
26° 59' 14"
Sunlit
Object was in full shadow at epoch
Visualization orbit readout
Latitude
12.95437°
Longitude
108.17893°
Altitude
930.394 km
Speed
7.419 km/s
Apparent Right ascension
07h 44m 29s
Apparent Declination
-11° 30' 52"
Sunlit
Object is in daylight
Visualization observer readout
Local Sidereal Time
20:05:55
Azimuth
10.95° NNE
Elevation
-61.205°
Doppler factor
1
Orbital elements
Apogee altitude
1,142.138 km
Perigee altitude
834.912 km
Semi-major axis
7,366.662 km
Eccentricity
0.02085
Inclination
70.9933°
RAAN
108.1522°
Arg. of periapsis
306.5106°
True anomaly
Unknown
Mean anomaly
205.7266°
Eccentric anomaly
Unknown
Mean motion
3.43271 °/min
Orbital period
104.87 mins
BSTAR
0.000024595
Loading maneuver chart data...
Loading SW <> Apogee altitude chart data...
Loading historical data...
Loading historical data...
Loading historical data...
Loading historical data...
Loading historical data...
Loading historical data...
Loading historical data...

SL-16 DEB Visibility forecast

Observer location: undefined°, undefined°

Span
Click to sort rows by Start time (UTC) header in descending order
Start Az.
Max El. time (UTC)
Max El. Az.
Max El.
End time (UTC)
End Az.
8 mins2025-07-06 18:41:08.708Z136.091° SSE2025-07-06 18:45:08.708Z95.128° ESE17.39°2025-07-06 18:49:08.708Z56.693° ENE
11 mins2025-07-06 20:27:08.708Z215.145° SW2025-07-06 20:31:08.708Z269.931° W42.735°2025-07-06 20:38:08.708Z18.898° NNE
5 mins2025-07-06 22:18:08.708Z296.421° NW2025-07-06 22:20:08.708Z315.662° NNW13.648°2025-07-06 22:23:08.708Z343.378° N
7 mins2025-07-07 03:52:08.708Z15.455° NNE2025-07-07 03:55:08.708Z42.766° NE16.167°2025-07-07 03:59:08.708Z78.851° E
12 mins2025-07-07 05:38:08.708Z341.119° N2025-07-07 05:44:08.708Z76.192° E44.118°2025-07-07 05:50:08.708Z150.86° SSE
8 mins2025-07-07 07:27:08.708Z296.469° NW2025-07-07 07:30:08.708Z268.279° W18.409°2025-07-07 07:35:08.708Z222.129° SW
|